Weather History for MKJP - January, 2011

Change the Weather History Date:

Wednesday, January 19, 2011

  Actual Average Record
Temperature  
Mean Temperature 81 °F -  
Max Temperature 87 °F 84 °F 89 °F (2013)
Min Temperature 75 °F 74 °F 71 °F (1997)
Cooling Degree Days 16    
Growing Degree Days 31 (Base 50)    
Moisture  
Dew Point 66 °F    
Average Humidity 65    
Maximum Humidity 74    
Minimum Humidity 46    
Precipitation  
Precipitation 0.00 in - - ()
Sea Level Pressure  
Sea Level Pressure 29.96 in    
Wind  
Wind Speed 6 mph ()    
Max Wind Speed 23 mph    
Max Gust Speed -    
Visibility 7.7 miles    
Events Thunderstorm    
Averages and records for this station are not official NWS values.
T = Trace of Precipitation, MM = Missing Value Source: Averaged Metar Reports

Daily Weather History Graph

Daily Weather History Graph

Search for Another Location

Airport or City:

Trip Planner

Search our weather history database for the weather conditions in past years. The results will help you decide how hot, cold, wet, or windy it might be!

Date:

Astronomy

Jan. 19, 2011 Rise Set
Actual Time 6:41 AM EST 5:54 PM EST
Civil Twilight 6:18 AM EST 6:17 PM EST
Nautical Twilight 5:51 AM EST 6:44 PM EST
Astronomical Twilight 5:25 AM EST 7:10 PM EST
Moon 5:56 PM EST (1/19) 6:18 AM EST (1/19)
Length of Visible Light 11h 58m
Length of Day
11h 12m
Full, 100% of the Moon is Illuminated
Jan 19
Full
Jan 19
Full
Jan 26
Last Quarter
Feb 2
New
Feb 11
First Quarter

Hourly Weather History & Observations

Time (EST) Temp. Heat Index Dew Point Humidity Pressure Visibility Wind Dir Wind Speed Gust Speed Precip Events Conditions
12:00 AM 75.2 °F - 66.2 °F 73% 29.95 in 6.2 mi North 4.6 mph - N/A   Mostly Cloudy
1:00 AM 76 °F - 66 °F 64% 29.96 in 12 mi NNW 4.6 mph - -   Haze
1:00 AM 75.2 °F - 66.2 °F 73% 29.95 in 6.2 mi NNW 4.6 mph - N/A   Partly Cloudy
2:00 AM 75.2 °F - 66.2 °F 73% 29.92 in 6.2 mi WNW 4.6 mph - N/A   Mostly Cloudy
3:00 AM 75.2 °F - 66.2 °F 73% 29.92 in 6.2 mi NW 5.8 mph - N/A   Mostly Cloudy
4:00 AM 76 °F - 65 °F 61% 29.93 in 12 mi NNW 3.5 mph - -   Haze
4:30 AM 75.2 °F - 64.4 °F 69% 29.92 in 6.2 mi NNW 3.5 mph - N/A   Mostly Cloudy
5:00 AM 75.2 °F - 66.2 °F 73% 29.92 in 6.2 mi North 5.8 mph - N/A   Scattered Clouds
6:00 AM 75.2 °F - 66.2 °F 73% 29.95 in 6.2 mi NW 4.6 mph - N/A   Scattered Clouds
7:00 AM 75 °F - 65 °F 63% 29.98 in 14 mi NW 2.3 mph - -   Haze
7:00 AM 75.2 °F - 64.4 °F 69% 29.98 in 6.2 mi NW 2.3 mph - N/A   Partly Cloudy
8:00 AM 75.2 °F - 66.2 °F 73% 29.98 in 6.2 mi NW 4.6 mph - N/A   Partly Cloudy
9:00 AM 77.0 °F - 66.2 °F 69% 30.01 in 6.2 mi North 2.3 mph - N/A   Partly Cloudy
10:00 AM 80 °F - 65 °F 52% 30.01 in 16 mi WNW 4.6 mph - -   Haze
10:00 AM 80.6 °F 82.7 °F 66.2 °F 61% 30.01 in 6.2 mi WNW 4.6 mph - N/A   Partly Cloudy
11:00 AM 82.4 °F 84.6 °F 66.2 °F 58% 29.98 in 6.2 mi SE 19.6 mph - N/A   Mostly Cloudy
12:00 PM 77.0 °F - 66.2 °F 69% 29.98 in 6.2 mi ESE 23.0 mph - N/A   Mostly Cloudy
1:00 PM 80.6 °F 82.3 °F 64.4 °F 58% 29.95 in 6.2 mi East 13.8 mph - N/A   Partly Cloudy
1:05 PM 80.6 °F 82.3 °F 64.4 °F 58% 29.95 in 6.2 mi East 12.7 mph - N/A Thunderstorm Thunderstorm
2:00 PM 80.6 °F 81.8 °F 62.6 °F 54% 29.92 in 6.2 mi East 13.8 mph - N/A   Mostly Cloudy
3:00 PM 82.4 °F 83.4 °F 62.6 °F 51% 29.92 in 6.2 mi ESE 13.8 mph - N/A   Mostly Cloudy
4:00 PM 82 °F - 65 °F 46% 29.93 in 12 mi ESE 12.7 mph - -   Haze
4:00 PM 82.4 °F 83.4 °F 62.6 °F 51% 29.92 in 6.2 mi ESE 12.7 mph - N/A   Mostly Cloudy
5:00 PM 80.6 °F 82.7 °F 66.2 °F 61% 29.92 in 6.2 mi East 9.2 mph - N/A   Mostly Cloudy
6:00 PM 82.4 °F 85.4 °F 68.0 °F 62% 29.95 in 6.2 mi North 9.2 mph - N/A   Mostly Cloudy
7:00 PM 78 °F - 67 °F 62% 29.97 in 12 mi NNE 4.6 mph - -   Haze
7:00 PM 78.8 °F - 68.0 °F 69% 29.95 in 6.2 mi NNE 4.6 mph - N/A   Mostly Cloudy
8:00 PM 77.0 °F - 68.0 °F 74% 29.98 in 6.2 mi NNW 5.8 mph - N/A   Mostly Cloudy
9:00 PM 77.0 °F - 68.0 °F 74% 29.98 in 6.2 mi NNW 2.3 mph - N/A   Mostly Cloudy
10:00 PM 77 °F - 67 °F 65% 30.01 in 12 mi NW 4.6 mph - -   Haze
10:00 PM 77.0 °F - 68.0 °F 74% 30.01 in 6.2 mi NW 4.6 mph - N/A   Mostly Cloudy
11:00 PM 77.0 °F - 66.2 °F 69% 29.98 in 6.2 mi Calm Calm - N/A   Mostly Cloudy